Location: ???????
(55.4362°N, 38.1183°E)
Time: 06:05:01
(UTC+00:00)

SL-4 R/B - Visible Passes

Search period start: 26 October 2021 00:00
Search period end: 05 November 2021 00:00
Orbit: 427 x 661 km, 51.6° (Epoch: 25 October)

Date Brightness Start Highest point End Pass type
(mag) Time Alt. Az. Time Alt. Az. Time Alt. Az.
26 Oct 4.9 01:02:09 10° SE 01:02:09 10° SE 01:02:09 10° SE visible
03 Nov 4.9 17:11:00 10° SSW 17:11:16 11° SSW 17:11:16 11° SSW visible
04 Nov 4.4 15:27:15 10° SSE 15:29:05 12° SE 15:29:05 12° SE visible
04 Nov 4.6 17:03:26 10° SW 17:04:38 17° SSW 17:04:38 17° SSW visible
